�������l�o���
Date,Time,MP-1(��Sv/h),MP-2(��Sv/h),MP-3(��Sv/h),MP-4(��Sv/h),MP-5(��Sv/h),MP-6(��Sv/h),MP-7(��Sv/h),MP-8(��Sv/h),����,����(m/s),���J
2023/11/19,00:00,0.513,0.775,0.483,0.968,0.693,0.315,0.562,0.525,�쐼,7.5,��
2023/11/19,00:10,0.513,0.773,0.487,0.971,0.694,0.315,0.562,0.527,��쐼,6.5,�L
2023/11/19,00:20,0.514,0.778,0.486,0.968,0.696,0.316,0.563,0.526,��,6.0,�L
2023/11/19,00:30,0.514,0.779,0.487,0.971,0.696,0.316,0.563,0.527,��쐼,7.2,�L
2023/11/19,00:40,0.515,0.779,0.487,0.970,0.696,0.317,0.563,0.526,��쐼,7.2,��
2023/11/19,00:50,0.516,0.777,0.487,0.970,0.696,0.316,0.563,0.526,��,6.2,�L
2023/11/19,01:00,0.514,0.778,0.486,0.970,0.696,0.316,0.563,0.526,��쐼,6.0,�L
2023/11/19,01:10,0.515,0.777,0.488,0.967,0.695,0.316,0.562,0.526,��,6.8,�L
2023/11/19,01:20,0.513,0.776,0.486,0.968,0.694,0.316,0.563,0.527,��쐼,5.5,�L
2023/11/19,01:30,0.514,0.775,0.487,0.969,0.694,0.315,0.561,0.526,��,4.3,��
2023/11/19,01:40,0.513,0.779,0.486,0.972,0.694,0.317,0.562,0.526,��,5.0,��
2023/11/19,01:50,0.514,0.778,0.486,0.968,0.694,0.315,0.564,0.527,��,4.3,��
2023/11/19,02:00,0.515,0.777,0.487,0.968,0.695,0.315,0.563,0.526,��,5.3,��
2023/11/19,02:10,0.512,0.777,0.485,0.969,0.693,0.314,0.562,0.524,��,5.6,��
2023/11/19,02:20,0.512,0.776,0.484,0.967,0.693,0.314,0.563,0.526,��,5.9,��
2023/11/19,02:30,0.513,0.775,0.485,0.967,0.693,0.314,0.565,0.526,��쐼,5.9,��
2023/11/19,02:40,0.513,0.776,0.484,0.968,0.691,0.315,0.562,0.525,��쐼,6.5,��
2023/11/19,02:50,0.513,0.776,0.485,0.969,0.695,0.314,0.563,0.525,��쐼,6.8,��
2023/11/19,03:00,0.511,0.775,0.484,0.967,0.693,0.314,0.563,0.525,��쐼,7.8,��
2023/11/19,03:10,0.513,0.777,0.486,0.969,0.691,0.316,0.564,0.526,��쐼,8.6,��
2023/11/19,03:20,0.511,0.776,0.484,0.968,0.692,0.314,0.563,0.525,��쐼,9.1,��
2023/11/19,03:30,0.512,0.774,0.485,0.969,0.693,0.315,0.561,0.524,��쐼,11.3,��
2023/11/19,03:40,0.513,0.776,0.485,0.968,0.694,0.315,0.565,0.525,��쐼,9.4,��
2023/11/19,03:50,0.513,0.777,0.484,0.967,0.693,0.314,0.564,0.523,��쐼,9.5,��
2023/11/19,04:00,0.512,0.776,0.486,0.970,0.696,0.315,0.565,0.524,��쐼,9.8,��
2023/11/19,04:10,0.512,0.775,0.484,0.969,0.692,0.315,0.564,0.526,��쐼,10.2,��
2023/11/19,04:20,0.513,0.776,0.486,0.967,0.695,0.316,0.564,0.526,��쐼,8.1,��
2023/11/19,04:30,0.513,0.777,0.484,0.969,0.694,0.313,0.563,0.524,��쐼,7.1,��
2023/11/19,04:40,0.512,0.774,0.486,0.966,0.695,0.313,0.563,0.523,��쐼,6.8,��
2023/11/19,04:50,0.512,0.775,0.484,0.969,0.693,0.315,0.563,0.525,��쐼,6.9,��
2023/11/19,05:00,0.514,0.776,0.484,0.966,0.693,0.315,0.565,0.524,���쐼,6.1,��
2023/11/19,05:10,0.512,0.775,0.485,0.967,0.693,0.315,0.563,0.524,���쐼,5.4,��
2023/11/19,05:20,0.513,0.774,0.484,0.968,0.694,0.315,0.564,0.526,���쐼,3.6,��
2023/11/19,05:30,0.513,0.774,0.485,0.967,0.692,0.315,0.563,0.525,��,4.8,��
2023/11/19,05:40,0.514,0.774,0.484,0.966,0.693,0.314,0.565,0.523,��,5.5,��
2023/11/19,05:50,0.511,0.771,0.485,0.968,0.692,0.314,0.563,0.524,���쐼,2.3,��
2023/11/19,06:00,0.512,0.774,0.484,0.966,0.696,0.313,0.563,0.525,���k��,0.6,��
2023/11/19,06:10,0.512,0.773,0.484,0.969,0.693,0.314,0.563,0.523,�k,1.1,��
2023/11/19,06:20,0.512,0.774,0.483,0.968,0.692,0.313,0.565,0.526,�k��,0.9,��
2023/11/19,06:30,0.512,0.773,0.483,0.968,0.692,0.315,0.563,0.524,��,3.2,��
2023/11/19,06:40,0.512,0.772,0.486,0.967,0.693,0.316,0.563,0.524,���쓌,2.2,��
2023/11/19,06:50,0.511,0.775,0.482,0.969,0.693,0.314,0.562,0.524,�k��,1.2,��
2023/11/19,07:00,0.509,0.772,0.484,0.969,0.692,0.315,0.564,0.526,�k��,1.7,��
2023/11/19,07:10,0.512,0.774,0.485,0.966,0.695,0.314,0.564,0.525,�k��,2.0,��
2023/11/19,07:20,0.512,0.772,0.483,0.966,0.693,0.314,0.563,0.524,�k�k��,1.4,��
2023/11/19,07:30,0.512,0.774,0.484,0.966,0.693,0.314,0.563,0.524,���k��,1.2,��
2023/11/19,07:40,0.511,0.774,0.484,0.966,0.691,0.314,0.564,0.525,��쓌,2.3,��
2023/11/19,07:50,0.511,0.776,0.484,0.967,0.694,0.316,0.563,0.525,�쓌,1.7,��
2023/11/19,08:00,0.512,0.774,0.483,0.969,0.692,0.315,0.562,0.523,�쓌,2.0,��
2023/11/19,08:10,0.513,0.775,0.483,0.967,0.693,0.315,0.563,0.525,��쓌,2.0,��
2023/11/19,08:20,0.511,0.776,0.484,0.967,0.693,0.314,0.563,0.525,��쓌,2.3,��
2023/11/19,08:30,0.511,0.775,0.483,0.968,0.694,0.313,0.563,0.524,���쓌,2.3,��
2023/11/19,08:40,0.512,0.775,0.484,0.967,0.693,0.314,0.564,0.524,��,0.9,��
2023/11/19,08:50,0.512,0.776,0.484,0.969,0.692,0.314,0.564,0.526,���k��,2.3,��
2023/11/19,09:00,0.510,0.772,0.484,0.969,0.695,0.314,0.561,0.526,�k��,2.3,��
2023/11/19,09:10,0.512,0.773,0.485,0.966,0.694,0.315,0.561,0.523,���k��,3.4,��
2023/11/19,09:20,0.510,0.774,0.485,0.969,0.693,0.315,0.560,0.524,���k��,3.8,��
2023/11/19,09:30,0.512,0.772,0.484,0.969,0.691,0.315,0.562,0.525,��,1.7,��
2023/11/19,09:40,0.513,0.774,0.483,0.968,0.696,0.314,0.560,0.525,���k��,1.2,��
2023/11/19,09:50,0.511,0.773,0.486,0.967,0.694,0.316,0.561,0.527,���k��,3.5,��
2023/11/19,10:00,0.512,0.774,0.485,0.969,0.695,0.316,0.560,0.525,���k��,4.2,��
2023/11/19,10:10,0.512,0.771,0.485,0.966,0.693,0.315,0.561,0.525,��,4.6,��
2023/11/19,10:20,0.512,0.775,0.486,0.967,0.694,0.315,0.561,0.526,���k��,4.1,��
2023/11/19,10:30,0.512,0.774,0.485,0.968,0.694,0.314,0.561,0.525,���k��,4.1,��
2023/11/19,10:40,0.511,0.775,0.485,0.968,0.692,0.314,0.560,0.525,�k��,4.0,��
2023/11/19,10:50,0.511,0.776,0.485,0.969,0.691,0.313,0.561,0.526,���쓌,3.3,��
2023/11/19,11:00,0.512,0.774,0.484,0.966,0.691,0.314,0.562,0.526,���쓌,2.0,��
2023/11/19,11:10,0.513,0.776,0.484,0.968,0.692,0.314,0.560,0.526,���k��,4.2,��
2023/11/19,11:20,0.512,0.776,0.485,0.968,0.692,0.313,0.561,0.526,���쓌,2.2,��
2023/11/19,11:30,0.514,0.775,0.484,0.968,0.692,0.314,0.562,0.524,��,3.9,��
2023/11/19,11:40,0.510,0.775,0.483,0.968,0.693,0.313,0.563,0.525,���k��,6.9,��
2023/11/19,11:50,0.514,0.775,0.484,0.970,0.693,0.315,0.562,0.525,���쐼,8.5,��
2023/11/19,12:00,0.512,0.774,0.485,0.968,0.695,0.315,0.562,0.525,���쐼,8.7,��
2023/11/19,12:10,0.512,0.777,0.484,0.971,0.696,0.315,0.562,0.523,��,9.8,��
2023/11/19,12:20,0.513,0.778,0.484,0.972,0.696,0.316,0.562,0.523,��,10.2,��
2023/11/19,12:30,0.512,0.777,0.484,0.970,0.694,0.316,0.564,0.525,��,8.9,��
2023/11/19,12:40,0.512,0.776,0.484,0.970,0.696,0.314,0.561,0.524,���쐼,7.6,��
2023/11/19,12:50,0.512,0.777,0.485,0.969,0.694,0.315,0.562,0.523,��,8.5,��
2023/11/19,13:00,0.512,0.777,0.485,0.973,0.694,0.314,0.563,0.524,��,11.6,��
2023/11/19,13:10,0.512,0.776,0.483,0.972,0.695,0.314,0.563,0.525,���쐼,10.3,��
2023/11/19,13:20,0.514,0.775,0.485,0.972,0.694,0.314,0.562,0.526,���쐼,8.1,��
2023/11/19,13:30,0.512,0.778,0.485,0.972,0.697,0.314,0.564,0.523,���쐼,7.8,��
2023/11/19,13:40,0.512,0.777,0.485,0.972,0.694,0.314,0.562,0.524,���쐼,9.8,��
2023/11/19,13:50,0.512,0.777,0.484,0.972,0.693,0.314,0.562,0.525,��,8.2,��
2023/11/19,14:00,0.513,0.777,0.485,0.972,0.694,0.314,0.562,0.525,��,7.7,��
2023/11/19,14:10,0.513,0.776,0.484,0.970,0.695,0.314,0.562,0.524,���쐼,6.5,��
2023/11/19,14:20,0.513,0.777,0.485,0.971,0.695,0.314,0.563,0.524,���쐼,6.4,��
2023/11/19,14:30,0.512,0.778,0.486,0.972,0.695,0.313,0.560,0.525,�쐼,7.6,��
2023/11/19,14:40,0.511,0.777,0.483,0.974,0.695,0.314,0.562,0.525,���쐼,6.5,��
2023/11/19,14:50,0.512,0.776,0.485,0.974,0.695,0.314,0.561,0.525,���쐼,7.9,��
2023/11/19,15:00,0.512,0.777,0.484,0.972,0.695,0.313,0.562,0.525,���쐼,8.2,��
2023/11/19,15:10,0.512,0.776,0.486,0.973,0.697,0.313,0.561,0.525,���쐼,8.3,��
2023/11/19,15:20,0.513,0.775,0.484,0.973,0.696,0.313,0.562,0.524,���쐼,8.9,��
2023/11/19,15:30,0.512,0.778,0.485,0.972,0.695,0.314,0.561,0.524,���쐼,7.9,��
2023/11/19,15:40,0.511,0.778,0.485,0.972,0.696,0.315,0.560,0.525,��,8.1,��
2023/11/19,15:50,0.512,0.777,0.486,0.974,0.695,0.314,0.562,0.524,��,7.1,��
2023/11/19,16:00,0.514,0.778,0.485,0.974,0.692,0.315,0.561,0.524,��,6.7,��
2023/11/19,16:10,0.514,0.776,0.486,0.974,0.695,0.315,0.562,0.525,��,7.5,��
2023/11/19,16:20,0.512,0.777,0.486,0.973,0.694,0.315,0.561,0.525,��,7.6,��
2023/11/19,16:30,0.513,0.777,0.488,0.974,0.695,0.315,0.562,0.526,���k��,6.4,��
2023/11/19,16:40,0.515,0.779,0.488,0.974,0.695,0.316,0.563,0.527,��,5.7,��
2023/11/19,16:50,0.515,0.780,0.486,0.974,0.698,0.317,0.559,0.528,��,6.0,��
2023/11/19,17:00,0.513,0.779,0.487,0.975,0.698,0.317,0.561,0.526,��,4.8,��
2023/11/19,17:10,0.515,0.779,0.488,0.973,0.698,0.316,0.561,0.526,��,5.0,��
2023/11/19,17:20,0.515,0.782,0.486,0.976,0.696,0.316,0.561,0.528,��,5.2,��
2023/11/19,17:30,0.515,0.780,0.486,0.974,0.698,0.316,0.563,0.527,���k��,5.4,��
2023/11/19,17:40,0.516,0.780,0.486,0.975,0.697,0.315,0.562,0.527,���k��,5.5,��
2023/11/19,17:50,0.515,0.780,0.486,0.975,0.698,0.315,0.563,0.526,���k��,4.7,��
2023/11/19,18:00,0.514,0.780,0.487,0.975,0.697,0.316,0.563,0.527,���쐼,4.0,��
2023/11/19,18:10,0.514,0.781,0.488,0.972,0.698,0.316,0.564,0.527,�쐼,3.6,��
2023/11/19,18:20,0.514,0.780,0.487,0.974,0.698,0.316,0.564,0.527,�쐼,3.3,��
2023/11/19,18:30,0.516,0.780,0.486,0.974,0.698,0.314,0.563,0.527,��쐼,2.3,��
2023/11/19,18:40,0.515,0.779,0.487,0.975,0.699,0.315,0.563,0.527,��쓌,2.9,��
2023/11/19,18:50,0.514,0.779,0.487,0.973,0.698,0.315,0.563,0.525,��,3.4,��
2023/11/19,19:00,0.515,0.779,0.487,0.975,0.699,0.316,0.563,0.526,��,4.1,��
2023/11/19,19:10,0.515,0.779,0.487,0.975,0.697,0.315,0.563,0.526,��쐼,6.3,��
2023/11/19,19:20,0.514,0.780,0.486,0.973,0.696,0.316,0.564,0.526,��쐼,6.4,��
2023/11/19,19:30,0.516,0.779,0.486,0.974,0.698,0.315,0.562,0.525,��쐼,7.7,��
2023/11/19,19:40,0.514,0.780,0.487,0.973,0.697,0.315,0.563,0.527,��쐼,7.4,��
2023/11/19,19:50,0.514,0.778,0.488,0.973,0.697,0.314,0.561,0.525,��쐼,6.9,��
2023/11/19,20:00,0.515,0.782,0.487,0.972,0.699,0.316,0.563,0.526,��쐼,6.3,��
2023/11/19,20:10,0.514,0.779,0.486,0.974,0.699,0.315,0.563,0.526,��쐼,6.3,��
2023/11/19,20:20,0.516,0.779,0.487,0.972,0.697,0.315,0.564,0.524,��쐼,6.5,��
2023/11/19,20:30,0.514,0.781,0.488,0.974,0.698,0.316,0.563,0.525,��쐼,6.0,��
2023/11/19,20:40,0.514,0.780,0.486,0.974,0.699,0.315,0.565,0.525,�쐼,5.1,��
2023/11/19,20:50,0.514,0.778,0.486,0.975,0.698,0.315,0.564,0.524,���쐼,5.8,��
2023/11/19,21:00,0.514,0.780,0.487,0.975,0.698,0.316,0.562,0.526,���쐼,7.8,��
2023/11/19,21:10,0.515,0.780,0.486,0.973,0.698,0.316,0.564,0.526,���쐼,9.0,��
2023/11/19,21:20,0.516,0.781,0.486,0.974,0.699,0.316,0.564,0.525,�쐼,8.7,��
2023/11/19,21:30,0.514,0.780,0.485,0.975,0.697,0.314,0.565,0.525,�쐼,8.5,��
2023/11/19,21:40,0.514,0.780,0.486,0.973,0.699,0.315,0.563,0.526,�쐼,8.5,��
2023/11/19,21:50,0.515,0.780,0.486,0.974,0.698,0.315,0.564,0.525,�쐼,8.3,��
2023/11/19,22:00,0.515,0.781,0.486,0.974,0.696,0.315,0.565,0.526,�쐼,7.8,��
2023/11/19,22:10,0.515,0.779,0.486,0.973,0.699,0.313,0.564,0.525,�쐼,7.4,��
2023/11/19,22:20,0.514,0.782,0.488,0.973,0.697,0.316,0.564,0.527,���쐼,5.2,��
2023/11/19,22:30,0.515,0.781,0.485,0.972,0.698,0.315,0.565,0.526,���쐼,4.7,��
2023/11/19,22:40,0.514,0.779,0.487,0.974,0.696,0.316,0.565,0.527,���쐼,4.6,��
2023/11/19,22:50,0.515,0.779,0.486,0.975,0.700,0.314,0.566,0.526,���쐼,5.1,��
2023/11/19,23:00,0.515,0.778,0.487,0.974,0.698,0.316,0.566,0.527,���쐼,6.0,��
2023/11/19,23:10,0.514,0.778,0.487,0.973,0.698,0.315,0.567,0.525,��,6.9,��
2023/11/19,23:20,0.514,0.778,0.486,0.973,0.696,0.316,0.566,0.527,���쐼,7.2,��
2023/11/19,23:30,0.515,0.778,0.486,0.973,0.696,0.314,0.564,0.525,���쐼,7.3,��
2023/11/19,23:40,0.516,0.779,0.486,0.974,0.698,0.315,0.567,0.526,���쐼,7.8,��
2023/11/19,23:50,0.516,0.781,0.486,0.974,0.696,0.315,0.564,0.527,���쐼,7.7,��
